Location: San Martino di Castrozza
(46.2667°N, 11.8000°E)
Time: 14:39:57
(UTC+00:00)

Cosmos 2369 Rocket - Pass Details

Date: 23 April 2021
Orbit: 828 x 853 km, 71.0° (Epoch: 12 May)

Event Time Altitude Azimuth Distance (km) Brightness Sun altitude
Exits shadow 01:23:11 16° 142° (SE) 2,050 4.0 -24.1°
Maximum altitude 01:26:07 24° 102° (ESE) 1,668 3.9 -23.8°
Drops below altitude 10° 01:30:28 10° 50° (NE) 2,450 5.6 -23.4°
Sets 01:33:21 0° 37° (NE) 3,393 6.8 -23.1°
